Sioux Falls, SD

9:52 AM CDT on October 20, 2019 (GMT -0500)
Foss

Weather History for KFSD - August, 2019

Change the Weather History Date:

Monday, August 26, 2019

  Actual Average Record
Temperature  
Mean Temperature 70 °F 69 °F  
Max Temperature 79 °F 80 °F 108 °F (1973)
Min Temperature 61 °F 58 °F 40 °F (1896)
Degree Days  
Heating Degree Days 0 1  
Month to date heating degree days 0 13  
Since 1 June heating degree days 20 72  
Since 1 July heating degree days 0 21  
Cooling Degree Days 5 5  
Month to date cooling degree days 174 175  
Year to date cooling degree days 702 602  
Since 1 June cooling degree days 687 566  
Growing Degree Days 20 (Base 50)    
Moisture  
Dew Point 63 °F    
Average Humidity 80    
Maximum Humidity 100    
Minimum Humidity 56    
Precipitation  
Precipitation 0.52 in 0.09 in 1.26 in (1903)
Month to date precipitation 2.47 2.55  
Year to date precipitation 29.66 18.89  
Snow  
Snow 0.00 in 0.00 in 0.00 in ()
Month to date snowfall T 0.0  
Since 1 June snowfall T 0.0  
Since 1 July snowfall T 0.0  
Snow Depth 0.00 in    
Sea Level Pressure  
Sea Level Pressure 29.79 in    
Wind  
Wind Speed 8 mph ()    
Max Wind Speed 21 mph    
Max Gust Speed 26 mph    
Visibility 8.6 miles    
Events Rain , Thunderstorm    
T = Trace of Precipitation, MM = Missing Value Source: Averaged Metar Reports

Daily Weather History Graph

Daily Weather History Graph

Search for Another Location

Airport or City:

Astronomy

Aug. 26, 2019 Rise Set
Actual Time 6:43 AM CDT 8:12 PM CDT
Civil Twilight 6:13 AM CDT 8:42 PM CDT
Nautical Twilight 5:37 AM CDT 9:18 PM CDT
Astronomical Twilight 4:58 AM CDT 9:57 PM CDT
Moon 2:03 AM CDT (8/26) 5:44 PM CDT (8/26)
Length of Visible Light 14h 29m
Length of Day
13h 29m
Waning Crescent, 19% of the Moon is Illuminated
Aug 26
Waning Crescent
Aug 30
New
Sep 5
First Quarter
Sep 13
Full
Sep 21
Last Quarter

Hourly Weather History & Observations

Time (CDT) Temp. Dew Point Humidity Pressure Visibility Wind Dir Wind Speed Gust Speed Precip Events Conditions
12:56 AM 66.9 °F 64.0 °F 90% 29.79 in 10.0 mi SE 9.2 mph - N/A   Overcast
1:47 AM 66.9 °F 64.0 °F 90% 29.79 in 10.0 mi SSE 11.5 mph - N/A   Overcast
1:56 AM 66.9 °F 64.0 °F 90% 29.78 in 10.0 mi SSE 12.7 mph - N/A   Overcast
2:35 AM 66.9 °F 64.0 °F 90% 29.81 in 10.0 mi South 6.9 mph - N/A   Mostly Cloudy
2:56 AM 66.9 °F 63.0 °F 87% 29.79 in 10.0 mi SSE 8.1 mph - N/A   Overcast
3:56 AM 66.9 °F 64.0 °F 90% 29.78 in 10.0 mi South 9.2 mph - N/A   Overcast
4:56 AM 66.9 °F 63.0 °F 87% 29.77 in 10.0 mi South 10.4 mph - N/A   Overcast
5:23 AM 66.9 °F 63.0 °F 87% 29.78 in 10.0 mi SSE 9.2 mph - N/A Thunderstorm Thunderstorm
5:56 AM 64.9 °F 63.0 °F 93% 29.77 in 2.5 mi East 3.5 mph - 0.06 in Rain , Thunderstorm Heavy Thunderstorms and Rain
6:56 AM 64.9 °F 64.0 °F 97% 29.76 in 2.0 mi East 4.6 mph - 0.35 in Rain , Thunderstorm Thunderstorms and Rain
7:23 AM 64.9 °F 64.0 °F 97% 29.77 in 2.5 mi East 6.9 mph - 0.03 in Rain Rain
7:56 AM 64.9 °F 64.0 °F 97% 29.76 in 3.0 mi SE 8.1 mph - 0.07 in Rain Light Rain
8:30 AM 64.9 °F 64.0 °F 97% 29.78 in 3.0 mi ESE 5.8 mph - 0.02 in Rain Light Rain
8:56 AM 66.0 °F 64.0 °F 93% 29.77 in 6.0 mi SE 8.1 mph - 0.03 in Rain Light Rain
9:56 AM 66.0 °F 64.0 °F 93% 29.77 in 6.0 mi SSE 11.5 mph - 0.01 in Rain Light Rain
10:39 AM 69.1 °F 64.9 °F 87% 29.80 in 10.0 mi South 5.8 mph - 0.00 in   Mostly Cloudy
10:56 AM 70.0 °F 64.0 °F 81% 29.79 in 10.0 mi Variable 4.6 mph - 0.00 in   Mostly Cloudy
11:56 AM 72.0 °F 64.9 °F 78% 29.79 in 10.0 mi SW 4.6 mph - N/A   Mostly Cloudy
12:26 PM 73.0 °F 66.0 °F 79% 29.80 in 10.0 mi Variable 4.6 mph - N/A   Scattered Clouds
12:54 PM 75.2 °F 62.6 °F 65% 29.79 in 10.0 mi West 8.1 mph - N/A   Mostly Cloudy
12:56 PM 75.0 °F 64.0 °F 69% 29.77 in 10.0 mi West 8.1 mph - N/A   Mostly Cloudy
1:37 PM 77.0 °F 66.0 °F 69% 29.79 in 10.0 mi West 8.1 mph 18.4 mph 0.00 in   Mostly Cloudy
1:56 PM 78.1 °F 64.9 °F 64% 29.76 in 10.0 mi NW 15.0 mph - 0.00 in   Mostly Cloudy
2:56 PM 77.0 °F 61.0 °F 58% 29.76 in 10.0 mi NW 17.3 mph 25.3 mph N/A   Scattered Clouds
3:56 PM 75.9 °F 60.1 °F 58% 29.77 in 10.0 mi NW 15.0 mph 24.2 mph N/A   Mostly Cloudy
5:56 PM 75.9 °F 61.0 °F 60% 29.76 in 10.0 mi WNW 9.2 mph - N/A   Scattered Clouds
6:56 PM 72.0 °F 59.0 °F 64% 29.79 in 10.0 mi West 8.1 mph - N/A   Scattered Clouds
7:56 PM 71.1 °F 62.1 °F 73% 29.81 in 10.0 mi West 5.8 mph - N/A   Scattered Clouds
8:56 PM 69.1 °F 57.9 °F 68% 29.84 in 10.0 mi WNW 11.5 mph - N/A   Mostly Cloudy
9:56 PM 66.9 °F 57.0 °F 70% 29.86 in 10.0 mi WNW 10.4 mph - N/A   Mostly Cloudy
10:56 PM 64.9 °F 55.9 °F 73% 29.87 in 10.0 mi WNW 10.4 mph - N/A   Mostly Cloudy
11:56 PM 63.0 °F 55.9 °F 78% 29.87 in 10.0 mi WNW 6.9 mph - N/A   Scattered Clouds